Meath Environmental Platform

Observations for Trim Patrick St

Time AQI Temp °C Hum % Pres Pa CO μg/m³ H₂S μg/m³ NO μg/m³ NO₂ μg/m³ O₃ μg/m³ SO₂ μg/m³ PM1 μg/m³ PM2.5 μg/m³ PM10 μg/m³
Thursday 6 August 2026
15:56 2 27.6 34 69,051 0 1.45 1.55 18.06 48.31 10.57 2 8.19 9.01
15:55 2 27.6 35 69,035 0 0 1.51 13.05 78.27 10.39 2.86 8.15 8.97
15:54 2 27.5 36 69,045 0 1.35 1.56 12.77 85.23 10.84 2 7.33 8.06
15:53 2 27.4 35 69,057 0 0 1.65 13.13 84.79 9.9 2 7.37 8.1
15:52 2 27.3 34 69,041 0 0 1.74 11.93 71.97 10.12 2 8.19 9.01
15:51 2 27.2 34 69,051 0 0 1.66 12.16 78.74 9.68 2 8.19 9.01
15:50 2 27.1 35 69,035 0 0 1.77 9.5 63.42 9.59 2 7.36 8.1
15:49 2 27 35 69,045 0 3.68 1.76 12.66 88.91 10.09 2 7.33 8.07
15:48 2 26.9 37 69,029 0 1.45 1.62 11.19 91.8 11.25 2 7.21 7.94
15:47 2 26.7 35 69,004 0 0 1.86 10.92 77.29 9.74 2 7.37 8.1
15:46 2 26.7 35 69,006 0 0 1.92 12.05 75.9 8.99 2 8.16 8.98
15:45 2 26.7 36 69,041 0 0.13 1.83 12.14 81.5 10.29 2 8.11 8.92
15:44 2 26.8 35 69,025 0 0.52 1.92 10.19 73.09 10.8 2 7.37 8.1
15:43 2 26.9 34 68,999 0 6.03 1.94 13.21 95.49 10.94 2 7.39 8.13
15:42 2 26.9 34 69,001 0 1.61 2 13.9 86.11 10.36 2 8.21 9.03
15:41 2 27 34 68,975 0 0 1.93 12.41 75.74 9.97 2 7.4 8.14
15:40 2 27.1 35 68,971 0 0 1.79 11.51 71.71 9.28 2 7.37 8.1
15:39 2 27.1 35 68,995 0 0 1.82 11.46 63.96 9.42 2 7.38 8.12
15:38 2 27 36 68,997 0 0 1.64 10.09 73.54 10.3 2 7.27 8
15:37 2 26.9 35 68,995 0 0 1.9 14.02 91.91 9.05 2 7.37 8.1